Location: Chequamegon National Forest
(46.1070°N, 90.8420°W)
Time: 16:39:24
(UTC-05:00)

Daily predictions for brighter satellites

Satellite Brightness Start Highest point End
(mag) Time Altitude Azimuth Time Altitude Azimuth Time Altitude Azimuth
Cosmos 2360 Rocket 3.0 20:20:06 10° SSE 20:24:48 28° ESE 20:29:30 10° NE
Cosmos 1980 Rocket 3.4 20:20:24 10° SW 20:25:49 47° WNW 20:31:13 10° NNE
Cosmos 1850 Rocket 4.1 20:21:32 10° NNW 20:26:54 87° ENE 20:32:12 10° SSE
Cosmos 1420 Rocket 4.0 20:22:18 10° SSW 20:27:27 86° ESE 20:32:42 10° NNE
Cosmos 1452 Rocket 4.0 20:23:00 10° SSW 20:28:15 68° WNW 20:33:33 10° NNE
Cosmos 839 Rocket 4.2 20:24:04 10° SW 20:30:16 82° NW 20:36:42 10° NE
Cosmos 1655 Rocket 4.2 20:27:13 10° S 20:33:32 84° W 20:39:56 10° N
COSMOS 2428 4.2 20:30:52 10° SE 20:34:01 15° E 20:37:10 10° ENE
Meteor 1-19 Rocket 4.5 20:30:37 10° NNW 20:36:31 81° W 20:42:17 10° S
Cosmos 220 Rocket 4.1 20:32:28 10° NNW 20:36:46 61° ENE 20:41:04 10° SSE
Resurs 1-3 3.7 20:35:10 10° SSE 20:39:34 87° WSW 20:43:59 10° NNW
NOSS 2-3 (C) 3.9 20:38:51 10° SSW 20:43:34 76° SE 20:49:11 10° NE
USA 215 4.2 20:37:43 10° NE 20:43:57 49° NNW 20:50:13 10° W
CZ-4B DEB 4.4 20:42:43 11° ESE 20:44:20 16° ENE 20:46:13 10° NNE
Cosmos 1025 Rocket 3.6 20:42:22 10° N 20:46:23 38° ENE 20:50:22 10° SE
Meteor 1-5 Rocket 4.3 20:41:43 10° SSE 20:46:48 50° E 20:51:55 10° NNE
Cosmos 1607 4.2 20:40:28 10° NW 20:46:57 78° WSW 20:53:24 10° SSE
Cosmos 1300 Rocket 3.4 20:46:43 10° S 20:51:00 74° E 20:55:19 10° NNE
Cosmos 1536 2.8 20:47:53 10° S 20:51:57 74° E 20:56:01 10° NNE
USA 186 2.3 20:48:37 10° S 20:51:58 63° W 20:55:18 10° NNW
Okean 1 Rocket 3.2 20:49:53 10° S 20:54:07 53° E 20:58:25 10° NNE
CZ-2D R/B 4.5 20:50:48 10° S 20:54:30 44° W 20:58:12 10° NNW
USA 238 DEB 3.9 20:47:32 10° NW 20:54:36 67° NE 21:01:04 13° SE
USA 238 3.9 20:47:38 10° NW 20:54:43 67° NE 21:01:09 13° SE
Meteor 2-4 Rocket 3.9 20:49:49 10° NNW 20:55:25 80° W 21:01:09 10° S
Tiangong 1 3.3 20:54:39 10° WSW 20:56:09 14° SSW 20:57:38 10° S
Cosmos 1939 Rocket 2.8 20:52:34 10° SSE 20:56:30 71° ENE 21:00:24 10° N
Spot 2 Rocket 3.9 20:53:04 10° S 20:58:07 65° WSW 21:03:12 10° NNW
ATLAS 3B R/B 2.6 20:57:27 10° NW 21:04:16 82° NE 21:09:58 14° SE
Helios 1A 3.2 21:01:07 11° SSE 21:05:03 56° ENE 21:09:15 10° N
SL-8 R/B 3.7 21:00:51 10° WNW 21:05:39 74° SSW 21:09:13 18° ESE
Cosmos 1818 4.4 21:03:57 10° SSE 21:08:25 27° ESE 21:12:55 10° ENE
ERS-1 Rocket 3.5 21:06:57 16° SE 21:10:40 42° ENE 21:15:23 10° N
Okean 1-7 Rocket 3.6 21:08:16 10° N 21:12:47 70° E 21:16:59 12° SSE
YAOGAN 6 2.4 21:10:08 12° SSE 21:13:18 79° ENE 21:16:50 10° N
Molniya-1 4.0 21:11:18 10° NNW 21:13:52 49° NE 21:15:39 23° ESE
ARGOS 3.9 21:12:31 18° ESE 21:15:57 36° ENE 21:20:50 10° N
EXPRESS MD2 3.4 21:14:00 10° W 21:16:46 64° NNW 21:21:50 10° ENE
USA 267 4.5 21:12:13 10° SSE 21:18:02 34° SW 21:23:55 10° WNW
Meteor 1-29 3.6 21:16:21 10° NNE 21:19:30 34° E 21:20:46 25° SE
BREEZE-M DEB (TANK) 1.0 21:17:05 10° WSW 21:19:58 82° NNW 21:20:55 26° ENE
Cosmos 2266 Rocket 4.1 21:14:41 10° SSW 21:20:43 79° W 21:26:48 10° N
Resurs 01 Rocket 3.4 21:16:48 10° SSW 21:20:45 31° W 21:24:44 10° NNW
Abrixas 4.4 21:19:09 10° SSW 21:19:47 14° S 21:19:47 14° S
BREEZE-M DEB (TANK) 3.1 21:21:05 10° WSW 21:24:23 79° SSE 21:35:12 10° ENE
Cosmos 2263 Rocket 3.6 21:21:59 10° NW 21:27:10 37° WSW 21:32:18 10° S
Aureole 3 Rocket 4.5 21:19:07 10° N 21:27:21 57° ENE 21:31:40 20° SE
Envisat 4.1 21:22:49 10° S 21:27:40 45° W 21:32:33 10° NNW
Cosmos 1743 4.2 21:29:25 19° E 21:29:25 19° E 21:31:52 10° NE
NOSS 3-2 (C) 4.3 21:24:10 10° NW 21:31:23 55° NE 21:36:46 21° ESE
Cosmos 2315 Rocket 4.1 21:27:05 10° N 21:33:22 83° W 21:39:40 10° S
Cosmos 1844 Rocket 2.8 21:27:53 10° NNW 21:33:33 62° ENE 21:36:50 25° SE
USA 245 4.2 21:31:48 26° ESE 21:33:36 37° ENE 21:37:13 10° N
SPOT 5 3.5 21:31:51 25° ESE 21:33:50 37° ENE 21:38:02 10° N
Cosmos 2278 Rocket 3.3 21:30:28 10° N 21:35:26 30° NE 21:38:10 20° E
Lacrosse 5 2.2 21:31:00 10° WSW 21:36:03 68° NW 21:41:09 10° NE
Cosmos 2322 Rocket 3.8 21:32:08 10° WSW 21:37:26 38° NW 21:42:44 10° NNE
Nadezhda 2 Rocket 4.4 21:31:49 10° S 21:37:59 85° E 21:44:18 10° N
Helios 1B rocket 2.3 21:36:09 10° NNE 21:40:17 83° ESE 21:44:23 10° SSW
Cosmos 1515 3.8 21:36:49 10° NNW 21:40:38 73° W 21:43:01 22° S
MetOp-B 4.1 21:37:45 24° SSE 21:41:02 67° ENE 21:46:22 10° N
Cosmos 1892 Rocket 3.5 21:39:29 10° N 21:43:55 70° E 21:45:55 31° SSE
H-2A R/B 2.4 21:46:54 31° ESE 21:48:45 44° ENE 21:53:27 10° N
Cosmos 2237 4.1 21:43:23 10° SSW 21:49:03 80° ESE 21:54:48 10° NNE
Cosmos 1302 Rocket 3.9 21:44:07 10° S 21:49:22 70° ESE 21:54:38 10° NNE
ATLAS 2AS CENTAUR R/B 3.4 21:42:34 10° SW 21:50:21 68° NW 21:58:31 10° NE
CENTAUR R/B 3.9 21:44:06 10° NNW 21:51:09 39° NE 21:56:35 19° E
SL-16 R/B 4.2 21:46:17 10° WSW 21:51:17 31° NW 21:56:18 10° N
Cosmos 2219 Rocket 2.6 21:50:02 29° SSE 21:52:00 38° ESE 21:57:11 10° NE
Cosmos 1486 Rocket 4.0 21:48:02 10° NNW 21:53:18 81° WSW 21:56:04 28° SSE
Cosmos 1745 Rocket 4.2 21:50:53 28° SSE 21:53:49 48° E 21:59:42 10° NNE
Cosmos 1500 3.3 21:54:32 20° SSW 21:57:08 75° W 22:01:01 10° N
SAR-Lupe-4 3.9 21:57:26 37° S 21:58:40 64° WSW 22:02:15 10° NNW
Cosmos 1544 Rocket 3.5 21:57:19 36° SSE 21:59:03 67° E 22:03:30 10° NNE
SeaSat 1 3.0 21:54:24 10° NNE 21:59:17 61° WNW 22:04:08 10° SW
Abrixas rocket 2.3 21:56:56 10° WNW 22:00:07 59° SSW 22:00:07 59° SSW
NOSS 3-4 (A) 3.8 21:56:26 15° S 22:01:08 41° ESE 22:07:07 10° NE
NOSS 3-4 (C) 3.8 21:57:10 19° S 22:01:15 40° ESE 22:07:13 10° NE
Cosmos 405 3.1 22:01:07 34° SSW 22:02:33 75° W 22:06:11 10° N
Aureole 2 Rocket 4.1 22:05:19 20° NE 22:05:19 20° NE 22:06:30 10° NNE
Cosmos 2322 4.1 21:58:47 10° SW 22:04:24 63° WNW 22:10:04 10° NNE
Terra 2.8 22:04:46 28° E 22:05:26 29° ENE 22:09:32 10° N
Cosmos 2360 Rocket 3.1 22:03:05 10° SW 22:08:31 49° WNW 22:14:00 10° NNE
Cosmos 1975 2.9 22:09:20 34° SSW 22:10:58 74° W 22:14:59 10° N
Cosmos 1455 Rocket 2.9 22:09:49 44° S 22:11:10 79° E 22:15:39 10° NNE
GP-B 3.9 22:12:37 10° NNE 22:16:18 35° ENE 22:16:18 35° ENE
COSMOS 2428 2.7 22:11:43 10° SSW 22:17:28 86° WNW 22:23:15 10° NNE
Cosmos 1844 3.7 22:13:00 10° NNW 22:18:42 79° WSW 22:20:43 42° SSE
Cosmos 724 4.4 22:22:35 10° NW 22:28:27 68° WSW 22:30:09 45° S
Meteor 1-12 Rocket 4.4 22:25:13 19° SSW 22:29:19 70° WNW 22:35:00 10° N
Cosmos 2333 Rocket 2.1 22:29:06 51° SSE 22:30:15 62° ESE 22:35:50 10° NNE
Cosmos 1354 Rocket 4.1 22:27:29 10° NNW 22:32:49 71° WSW 22:34:09 50° S
BREEZE M DEB (TANK) 3.5 22:28:36 10° WSW 22:32:14 34° SW 22:32:14 34° SW
Cosmos 2333 4.4 22:30:16 10° SW 22:35:53 69° WNW 22:41:31 10° NNE
Cosmos 1437 Rocket 2.9 22:36:51 71° WNW 22:36:51 71° WNW 22:40:47 10° N
Nadezhda 1 Rocket 4.1 22:34:01 10° NNW 22:40:21 76° W 22:42:45 41° S
Cosmos 2237 Rocket 2.4 22:42:11 51° E 22:42:11 51° E 22:47:08 10° NE
NOSS 3-2 (A) 4.3 22:34:40 10° NW 22:42:01 60° WSW 22:45:10 37° S
Cosmos 1666 3.1 22:42:51 60° NNW 22:42:51 60° NNW 22:46:07 10° N
CARTOSAT-1 3.8 22:44:39 61° NE 22:44:39 61° NE 22:48:32 10° N
DMSP B5D2-2 3.9 22:43:01 10° NNE 22:48:19 76° ESE 22:48:40 72° SE
Cosmos 1980 3.6 22:48:45 65° ESE 22:48:46 65° ESE 22:54:24 10° NNE
Nimbus 7 Rocket 4.3 22:43:18 10° NNE 22:49:12 86° ESE 22:50:48 51° S
SPOT 1/Viking Rocket 3.9 22:49:27 48° SSW 22:50:35 59° W 22:55:46 10° NNW
Cosmos 1818 4.2 22:46:20 10° SW 22:51:39 56° NW 22:57:02 10° NNE
Cosmos 972 Rocket 4.3 22:51:59 60° E 22:51:59 60° E 22:57:59 10° NNE
ATLAS 3B R/B 4.4 22:49:21 10° WNW 22:54:07 21° WSW 22:57:14 15° SW
Cosmos 1602 Rocket 3.8 22:50:12 10° NNW 22:54:18 62° W 22:54:18 62° W
ARGOS 4.4 22:54:02 25° SW 22:56:12 34° W 23:01:05 10° NNW
H-2A R/B 3.0 22:57:37 41° NE 22:57:37 41° NE 23:01:04 10° N
BREEZE-M DEB 4.0 22:53:23 10° WNW 22:58:04 39° W 22:58:04 39° W
Cosmos 1709 Rocket 3.8 23:00:38 67° SSE 23:01:23 76° E 23:07:40 10° NNE
ATLAS CENTAUR R/B 2.9 22:58:30 10° NNW 23:00:51 28° NNE 23:00:51 28° NNE
Cosmos 1842 4.2 22:59:45 10° NNW 23:02:46 47° NW 23:02:46 47° NW
USA 81 3.9 22:58:36 10° N 23:03:52 81° ENE 23:03:52 81° ENE
Cosmos 1743 4.3 23:04:31 31° W 23:04:42 31° WNW 23:08:08 10° N
Cosmos 2181 Rocket 3.9 22:58:43 10° N 23:05:11 76° E 23:05:56 67° SE
Cosmos 2297 3.8 23:03:49 10° NNW 23:09:28 63° ENE 23:09:37 63° ENE
SPOT 5 4.4 23:11:06 25° WSW 23:11:58 27° W 23:15:53 10° NW
BREEZE M DEB (TANK) 4.5 23:12:11 10° WNW 23:14:50 29° WNW 23:14:50 29° WNW
CZ-2C R/B 4.2 23:17:26 29° NE 23:17:26 29° NE 23:20:55 10° N
Cosmos 1844 Rocket 4.4 23:12:42 10° NW 23:16:56 22° W 23:18:29 20° WSW
COSMOS 2455 2.9 23:11:10 10° NNW 23:17:10 62° NE 23:17:33 61° ENE
Lacrosse 5 3.8 23:15:27 10° WNW 23:19:47 27° NNW 23:24:08 10° NE
Cosmos 2278 Rocket 2.6 23:14:17 10° NW 23:19:47 51° WSW 23:20:01 51° WSW
DNEPR-1 R/B 4.2 23:18:15 10° NW 23:21:44 56° NNW 23:21:44 56° NNW
NOSS 0 Rocket 4.1 23:22:04 41° SW 23:24:17 69° WNW 23:30:32 10° NNE
H-2A R/B 3.6 23:27:33 24° WSW 23:28:21 25° W 23:32:25 10° NW
CZ-2C R/B 4.2 23:23:56 10° NE 23:26:48 24° ENE 23:26:48 24° ENE
Cosmos 968 Rocket 4.0 23:28:20 10° NNW 23:32:43 52° WNW 23:32:43 52° WNW
Cosmos 2219 Rocket 3.5 23:31:38 14° WSW 23:35:58 38° NW 23:41:13 10° NNE
CENTAUR R/B 3.0 23:34:43 10° NW 23:42:34 76° SW 23:43:45 66° S
Terra 3.1 23:43:40 34° W 23:43:40 34° W 23:47:27 10° NNW
ATLAS CENTAUR R/B 3.3 23:33:54 10° NW 23:46:47 63° NNE 23:47:41 56° ENE
NOSS 3-4 (A) 4.4 23:45:53 10° WSW 23:51:57 48° NW 23:58:20 10° NNE
SL-16 R/B 2.7 23:53:30 52° NE 23:53:30 52° NE 23:57:44 10° NNE
NOSS 3-4 (C) 4.3 23:45:59 10° WSW 23:52:03 48° NW 23:58:26 10° NNE
Cosmos 1943 Rocket 4.1 23:49:29 10° N 23:53:28 20° NE 23:54:34 19° ENE
